Location: Banska Bystrica
(0.0000°N, 19.1500°E)
Time: 05:52:30
(UTC+01:00)

Daily predictions for brighter satellites

Satellite Brightness Start Highest point End
(mag) Time Altitude Azimuth Time Altitude Azimuth Time Altitude Azimuth
ARIANE 5 R/B 4.5 02:59:26 76° SW 03:00:40 80° S 08:58:54 10° E
Ariane H10+ 4.4 03:30:19 82° WNW 03:30:50 87° N 03:36:54 10° E
BLOCK DM-SL R/B 4.4 03:30:22 81° WSW 03:30:51 86° S 04:02:11 10° E
BLOCK DM-SL R/B 4.4 03:30:21 81° WSW 03:30:51 86° S 04:02:11 10° E
BLOCK DM-SL R/B 4.4 03:30:21 81° WSW 03:30:51 86° S 04:02:12 10° E
Cosmos 2322 Rocket 4.1 03:29:48 10° SSE 03:34:28 27° ESE 03:39:07 10° NE
ATLAS 3B R/B 4.1 03:41:32 24° S 03:41:32 24° S 03:44:13 10° S
ARIANE 44P R/B 4.3 03:44:00 37° NE 03:44:00 37° NE 03:46:12 10° ENE
NOSS 3-2 (A) 4.0 03:44:30 79° W 03:44:49 81° WSW 03:53:08 10° SSE
Milstar 3 3.7 03:45:56 47° NNW 03:49:19 66° NNE 03:56:59 10° ESE
Atlas Centaur 2 2.2 04:03:36 51° ESE 04:03:36 51° ESE 04:06:59 10° ENE
ARIANE 5 R/B 3.5 04:05:47 26° E 04:05:47 26° E 04:06:45 10° E
ISS -1.4 04:06:56 23° ESE 04:06:56 23° ESE 04:09:03 10° ENE
ARIANE 5 R/B 3.4 04:08:30 42° NE 04:08:30 42° NE 04:10:14 10° ENE
SL-16 R/B 2.1 04:14:07 10° SSW 04:19:47 90° WNW 04:25:27 10° NNE
Delta 2 Rocket 4.2 04:19:43 43° WSW 04:22:15 77° NNW 04:30:28 10° ENE
Cosmos 967 Rocket 4.3 04:20:45 10° SSW 04:27:03 84° WNW 04:33:24 10° NNE
Cosmos 1825 3.5 04:33:37 26° SSW 04:33:37 26° SSW 04:35:30 10° SSW
CZ-2C R/B 3.3 04:28:53 10° NNE 04:33:56 55° ESE 04:38:59 10° S
Meteor 2-17 Rocket 4.3 04:30:35 10° SSW 04:36:33 62° W 04:42:29 10° N
Cosmos 2242 Rocket 3.6 04:32:32 10° S 04:37:04 83° E 04:41:37 10° N
deb Ariane 4.4 04:36:40 25° SSW 04:37:14 27° S 04:39:54 10° ESE
Cosmos 1441 Rocket 3.2 04:33:49 10° S 04:37:45 89° E 04:41:43 10° N
NOSS 3-2 (C) 4.5 04:35:00 28° WNW 04:38:57 45° WSW 04:46:44 10° S
Cosmos 1862 3.9 04:38:30 10° N 04:42:26 58° E 04:46:24 10° SSE
ARIANE 5 R/B 3.7 04:37:13 25° W 04:42:51 70° S 04:46:51 10° ESE
Cosmos 1605 Rocket 4.0 04:37:37 10° SSW 04:43:40 53° W 04:49:36 10° NNW
Cosmos 2227 Rocket 2.1 04:38:46 13° NNW 04:43:53 72° WSW 04:49:30 10° S
Meteor 1-28 Rocket 3.1 04:43:05 10° SSE 04:46:55 88° ENE 04:50:42 10° N
NOAA 6 4.0 04:42:17 10° N 04:47:18 58° WNW 04:52:19 10° SSW
Feng Yun 1-1 Rocket 4.3 04:41:52 10° N 04:47:33 68° WNW 04:53:23 10° SSW
GENESIS II 4.4 04:46:31 32° WSW 04:47:49 45° WNW 04:51:33 10° N
USA 215 3.5 04:47:38 10° SE 04:54:08 70° NE 05:00:39 10° NNW
PAYLOAD A 4.1 04:51:36 10° N 04:56:23 49° WNW 05:01:25 10° SSW
Cosmos 2297 Rocket 2.2 04:52:04 10° NNW 04:57:37 61° WSW 05:03:11 10° S
CENTAUR R/B 3.1 04:52:06 10° NNW 05:00:37 78° WSW 05:08:46 10° SSE
Spelda 3.6 04:59:44 26° WSW 05:00:46 49° S 05:04:21 10° ESE
IDEFIX/ARIANE 42P 2.9 04:57:30 10° N 05:02:19 40° WNW 05:07:10 10° SSW
Radarsat Rocket 4.2 04:57:09 10° N 05:03:17 60° WNW 05:10:15 10° SSW
ARIANE 5 R/B 3.8 05:01:54 15° WSW 05:06:32 61° S 05:54:09 10° E
Cosmos 1862 Rocket 3.9 05:04:26 10° SSW 05:08:31 41° W 05:12:34 10° NNW
ARIANE 44LP R/B 3.2 05:05:30 15° W 05:11:18 61° N 05:13:48 10° ENE
Cosmos 1461 3.5 05:10:12 10° SW 05:13:45 31° WNW 05:17:26 10° N
Cosmos 1606 2.7 05:10:46 10° S 05:14:39 87° W 05:18:29 10° N
Cosmos 2061 Rocket 4.2 05:09:25 10° S 05:15:41 76° E 05:21:52 10° N
COSMO-SKYMED 1 3.2 05:11:58 10° SSE 05:16:14 59° ENE 05:20:28 10° N
Cosmos 1459 Rocket 4.0 05:10:59 10° S 05:17:08 84° W 05:23:20 10° N
Cosmos 2173 Rocket 4.0 05:11:33 10° S 05:17:52 84° W 05:24:05 10° N
Cosmos 2322 Rocket 3.3 05:14:05 10° WSW 05:18:12 21° WNW 05:22:20 10° NNW
Cosmos 1802 Rocket 4.2 05:12:32 10° S 05:18:59 81° E 05:25:23 10° N
Ariane H10 3.3 05:18:53 12° WNW 05:21:52 45° N 05:31:36 10° E
Lacrosse 4 Rocket 2.2 05:21:00 10° S 05:25:04 55° ESE 05:29:01 10° NNE
Cosmos 2082 4.4 05:22:16 10° NW 05:27:20 33° WSW 05:32:26 10° SSW
Cosmos 2360 Rocket 2.3 05:21:53 10° SSW 05:27:24 54° WNW 05:32:53 10° N
Okean 1-7 3.8 05:23:29 10° S 05:27:40 57° E 05:31:52 10° NNE
Milstar 3 Cent rocket 4.5 05:25:44 10° NNW 05:27:47 11° N 05:30:08 10° NNE
EPKM 4.0 05:21:44 10° WNW 05:29:19 34° SW 05:31:50 10° SSE
Cosmos 1733 Rocket 3.3 05:25:15 10° N 05:29:37 75° E 05:34:04 10° S
Lacrosse 5 rocket 4.3 05:27:45 10° NNE 05:29:40 13° ENE 05:31:38 10° E
ARIANE DEB (SPELDA) 4.0 05:26:34 10° W 05:30:19 69° S 05:51:19 10° E
Okean-O 4.0 05:29:17 10° NW 05:32:16 18° WNW 05:35:15 10° WSW
Ariane H10 2.4 05:32:08 10° WSW 05:34:18 32° S 05:36:19 10° ESE
ARIANE 5 R/B 2.9 05:26:41 10° W 05:38:00 73° N 05:40:39 10° E
